| time (UTC) | temp C | wind direction | speed KPH | gust KPH | rain 1hr cm | rain 24hr cm | rain mn cm | humidity % | barometer mb |
| 20260505011534 | 15 | 109 | 0.0 | 1.6 | 0.00 | 0.00 | 0.00 | 67 | 1013.3 |
| 20260505010017 | 15 | 109 | 0.0 | 3.2 | 0.00 | 0.00 | 0.00 | 67 | 1013.3 |
| 20260505004607 | 16 | 109 | 0.0 | 3.2 | 0.00 | 0.00 | 0.00 | 66 | 1013.4 |
| 20260505003057 | 16 | 109 | 0.0 | 6.4 | 0.00 | 0.00 | 0.00 | 64 | 1013.5 |
| 20260505001549 | 16 | 108 | 0.0 | 6.4 | 0.00 | 0.00 | 0.00 | 63 | 1013.6 |
| 20260505000055 | 16 | 107 | 0.0 | 1.6 | 0.00 | 0.00 | 0.00 | 63 | 1013.6 |
| 20260504234542 | 16 | 107 | 0.0 | 6.4 | 0.00 | 0.00 | 0.00 | 61 | 1013.8 |
| 20260504233054 | 16 | 219 | 0.0 | 3.2 | 0.00 | 0.00 | 0.00 | 62 | 1013.8 |
| 20260504231538 | 16 | 219 | 0.0 | 3.2 | 0.00 | 0.00 | 0.00 | 63 | 1013.9 |
| 20260504230036 | 16 | 219 | 0.0 | 3.2 | 0.00 | 0.00 | 0.00 | 63 | 1014.1 |
| 20260504224536 | 16 | 219 | 0.0 | 3.2 | 0.00 | 0.00 | 0.00 | 65 | 1014.1 |
| 20260504223032 | 15 | 219 | 0.0 | 1.6 | 0.00 | 0.00 | 0.00 | 67 | 1014.3 |
| 20260504221514 | 15 | 219 | 0.0 | 4.8 | 0.00 | 0.00 | 0.00 | 69 | 1014.5 |
| 20260504220014 | 15 | 219 | 0.0 | 4.8 | 0.00 | 0.00 | 0.00 | 70 | 1014.7 |
| 20260504214606 | 14 | 219 | 0.0 | 4.8 | 0.00 | 0.00 | 0.00 | 71 | 1014.8 |
| 20260504213056 | 14 | 219 | 1.6 | 6.4 | 0.00 | 0.00 | 0.00 | 70 | 1014.9 |
| 20260504211538 | 15 | 219 | 1.6 | 4.8 | 0.00 | 0.00 | 0.00 | 67 | 1015.0 |
| 20260504210038 | 15 | 218 | 0.0 | 3.2 | 0.00 | 0.00 | 0.00 | 67 | 1015.1 |
| 20260504204524 | 15 | 218 | 1.6 | 4.8 | 0.00 | 0.00 | 0.00 | 67 | 1015.1 |
| 20260504203021 | 15 | 218 | 1.6 | 6.4 | 0.00 | 0.00 | 0.00 | 67 | 1015.0 |
| 20260504201501 | 15 | 90 | 0.0 | 3.2 | 0.00 | 0.00 | 0.00 | 65 | 1015.0 |
| 20260504200105 | 15 | 90 | 0.0 | 1.6 | 0.00 | 0.00 | 0.00 | 65 | 1014.9 |
| 20260504194540 | 15 | 90 | 0.0 | 1.6 | 0.00 | 0.00 | 0.00 | 68 | 1015.0 |
| 20260504193039 | 15 | 90 | 0.0 | 3.2 | 0.00 | 0.00 | 0.00 | 68 | 1015.1 |
| 20260504191525 | 15 | 90 | 0.0 | 0.0 | 0.00 | 0.00 | 0.00 | 69 | 1015.1 |
| 20260504190026 | 14 | 90 | 0.0 | 1.6 | 0.00 | 0.00 | 0.00 | 70 | 1015.2 |
| 20260504184525 | 14 | 90 | 0.0 | 1.6 | 0.00 | 0.00 | 0.00 | 70 | 1015.2 |
| 20260504183023 | 14 | 90 | 0.0 | 0.0 | 0.00 | 0.00 | 0.00 | 68 | 1015.3 |
| 20260504181521 | 14 | 90 | 0.0 | 1.6 | 0.00 | 0.00 | 0.00 | 68 | 1015.1 |
| 20260504180020 | 14 | 90 | 0.0 | 1.6 | 0.00 | 0.00 | 0.00 | 68 | 1015.1 |
| 20260504174517 | 14 | 90 | 0.0 | 1.6 | 0.00 | 0.00 | 0.00 | 68 | 1014.8 |
| 20260504173020 | 14 | 90 | 0.0 | 4.8 | 0.00 | 0.00 | 0.00 | 69 | 1014.7 |
| 20260504171558 | 14 | 90 | 0.0 | 1.6 | 0.00 | 0.00 | 0.00 | 69 | 1014.6 |
| 20260504081516 | 13 | 123 | 0.0 | 3.2 | 0.00 | 0.00 | 0.00 | 70 | 1012.9 |
| 20260504044609 | 15 | 110 | 0.0 | 9.7 | 0.00 | 0.00 | 0.00 | 59 | 1011.3 |
| 20260504043046 | 15 | 94 | 0.0 | 9.7 | 0.00 | 0.00 | 0.00 | 58 | 1011.1 |
| 20260504041537 | 16 | 93 | 0.0 | 3.2 | 0.00 | 0.00 | 0.00 | 59 | 1010.8 |
| 20260504040023 | 16 | 83 | 0.0 | 11.3 | 0.00 | 0.00 | 0.00 | 57 | 1010.7 |
| 20260504034517 | 17 | 96 | 1.6 | 11.3 | 0.00 | 0.00 | 0.00 | 56 | 1010.3 |
| 20260504033059 | 17 | 122 | 0.0 | 8.0 | 0.00 | 0.00 | 0.00 | 56 | 1010.2 |
| 20260504031559 | 18 | 142 | 0.0 | 12.9 | 0.00 | 0.00 | 0.00 | 54 | 1009.9 |
| 20260504030041 | 19 | 86 | 3.2 | 14.5 | 0.00 | 0.00 | 0.00 | 52 | 1009.6 |
| 20260504024540 | 20 | 125 | 1.6 | 9.7 | 0.00 | 0.00 | 0.00 | 50 | 1009.2 |
| 20260504023026 | 22 | 82 | 0.0 | 8.0 | 0.00 | 0.00 | 0.00 | 48 | 1008.9 |
| 20260504021523 | 22 | 141 | 0.0 | 4.8 | 0.00 | 0.00 | 0.00 | 46 | 1008.5 |
| 20260504020010 | 22 | 75 | 0.0 | 6.4 | 0.00 | 0.00 | 0.00 | 44 | 1008.4 |
| 20260504014510 | 23 | 70 | 0.0 | 8.0 | 0.00 | 0.00 | 0.00 | 44 | 1008.3 |
| 20260504013008 | 23 | 77 | 0.0 | 6.4 | 0.00 | 0.00 | 0.00 | 41 | 1008.4 |